Tracking 17844 objects as of 28-August-2016
HD Live streaming from Space Station
objects crossing your sky now

SJ-7

Track SJ-7 now!
10-day predictions
SJ-7 is classified as:


NORAD ID: 28737
Int'l Code: 2005-024A
Perigee: 567.6 km
Apogee: 610.8 km
Inclination: 97.7 °
Period: 96.3 minutes
Semi major axis: 6960 km
RCS: 3.0015 m2 (large)
Launch date: July 5, 2005
Source: People's Republic of China (PRC)
Launch site: Jiuquan Satellite Launch Center, China (JSC)
Your satellite tracking list
Your tracking list is empty





NASA's NSSDC Master Catalog

Two Line Element Set (TLE):
1 28737U 05024A   16240.80630096  .00000217  00000-0  24878-4 0  9996
2 28737  97.6611 248.4503 0031088 210.1798 149.7596 14.95102053611114
Source of the keplerian elements: AFSPC

N2YO: 450